Weather History for CWSA - May, 2014

Change the Weather History Date:

Monday, May 12, 2014

  Actual Average Record
Temperature  
Mean Temperature 40 °F -  
Max Temperature 42 °F 46 °F 58 °F (2013)
Min Temperature 37 °F 37 °F 37 °F (2005)
Degree Days  
Heating Degree Days 26    
Moisture  
Dew Point 36 °F    
Average Humidity 86    
Maximum Humidity 93    
Minimum Humidity 71    
Precipitation  
Precipitation 0.00 in - - ()
Sea Level Pressure  
Sea Level Pressure 30.05 in    
Wind  
Wind Speed 13 mph ()    
Max Wind Speed 21 mph    
Max Gust Speed 24 mph    
Visibility 6.4 miles    
Events Rain    
Averages and records for this station are not official NWS values.
T = Trace of Precipitation, MM = Missing Value Source: Averaged Metar Reports

Daily Weather History Graph

Daily Weather History Graph

Search for Another Location

Airport or City:

Trip Planner

Search our weather history database for the weather conditions in past years. The results will help you decide how hot, cold, wet, or windy it might be!

Date:

Astronomy

May. 12, 2014 Rise Set
Actual Time 5:37 AM ADT 8:15 PM ADT
Civil Twilight 5:04 AM ADT 8:48 PM ADT
Nautical Twilight 4:23 AM ADT 9:30 PM ADT
Astronomical Twilight 3:36 AM ADT 10:18 PM ADT
Moon 6:04 PM ADT (5/12) 4:19 AM ADT (5/12)
Length of Visible Light 15h 44m
Length of Day
14h 38m
Waxing Gibbous, 94% of the Moon is Illuminated
May 12
Waxing Gibbous
May 14
Full
May 21
Last Quarter
May 28
New
Jun 5
First Quarter

Hourly Weather History & Observations

Time (ADT) Temp. Windchill Dew Point Humidity Pressure Visibility Wind Dir Wind Speed Gust Speed Precip Events Conditions
12:00 AM 44 °F - 41 °F 87% 29.91 in 6 mi NNW 15.0 mph - -  
12:00 AM 42.8 °F 35.4 °F 41.0 °F 93% 29.91 in 6.0 mi NNW 15.0 mph - N/A   Scattered Clouds
12:02 AM 42.8 °F 35.4 °F 41.0 °F 93% 29.91 in 6.0 mi NNW 15.0 mph - N/A   Mostly Cloudy
1:00 AM 41.0 °F 32.8 °F 39.2 °F 93% 29.92 in 9.0 mi North 16.1 mph - N/A   Overcast
1:31 AM 41.0 °F 32.8 °F 37.4 °F 87% 29.92 in 9.0 mi North 16.1 mph - N/A   Partly Cloudy
1:32 AM 41.0 °F 32.8 °F 37.4 °F 87% 29.91 in 9.0 mi North 16.1 mph - N/A   Overcast
1:50 AM 41.0 °F 32.8 °F 37.4 °F 87% 29.93 in 9.0 mi North 16.1 mph 21.9 mph N/A   Overcast
1:59 AM 39.2 °F 30.2 °F 37.4 °F 93% 29.93 in 7.0 mi North 17.3 mph - N/A   Overcast
2:00 AM 39.2 °F 30.5 °F 37.4 °F 93% 29.94 in 7.0 mi North 16.1 mph - N/A   Overcast
2:05 AM 39.2 °F 30.2 °F 37.4 °F 93% 29.94 in 6.0 mi North 17.3 mph - N/A   Overcast
2:07 AM 39.2 °F 29.8 °F 37.4 °F 93% 29.94 in 5.0 mi North 18.4 mph - N/A   Overcast
2:12 AM 39.2 °F 30.2 °F 37.4 °F 93% 29.94 in 2.2 mi North 17.3 mph - N/A   Overcast
2:18 AM 39.2 °F 30.5 °F 37.4 °F 93% 29.95 in 1.2 mi NNW 16.1 mph - N/A   Overcast
2:28 AM 39.2 °F 29.3 °F 37.4 °F 93% 29.96 in 0.8 mi North 20.7 mph - N/A   Overcast
2:32 AM 39.2 °F 29.6 °F 37.4 °F 93% 29.95 in 0.6 mi North 19.6 mph - N/A   Overcast
2:42 AM 39.2 °F 30.2 °F 37.4 °F 93% 29.96 in 1.0 mi North 17.3 mph 24.2 mph N/A   Overcast
2:54 AM 39.2 °F 29.6 °F 37.4 °F 93% 29.96 in 1.8 mi North 19.6 mph - N/A   Overcast
2:56 AM 39.2 °F 29.3 °F 37.4 °F 93% 29.96 in 1.2 mi North 20.7 mph - N/A   Overcast
3:00 AM 39 °F - 37 °F 89% 29.97 in 1 mi North 19.6 mph - - Rain Light Drizzle
3:00 AM 39.2 °F 29.6 °F 37.4 °F 93% 29.97 in 1.0 mi North 19.6 mph - N/A   Overcast
3:01 AM 39.2 °F 29.8 °F 37.4 °F 93% 29.97 in 0.8 mi North 18.4 mph - N/A   Overcast
3:10 AM 39.2 °F 30.2 °F 37.4 °F 93% 29.96 in 1.6 mi North 17.3 mph - N/A   Overcast
3:17 AM 39.2 °F 29.6 °F 35.6 °F 87% 29.96 in 2.5 mi North 19.6 mph - N/A   Overcast
3:20 AM 39.2 °F 29.8 °F 35.6 °F 87% 29.97 in 2.5 mi North 18.4 mph - N/A   Overcast
3:23 AM 39.2 °F 29.8 °F 37.4 °F 93% 29.97 in 3.0 mi North 18.4 mph - N/A   Overcast
3:27 AM 39.2 °F 29.8 °F 37.4 °F 93% 29.97 in 3.0 mi North 18.4 mph - N/A   Overcast
3:33 AM 39.2 °F 30.2 °F 37.4 °F 93% 29.97 in 2.5 mi North 17.3 mph - N/A   Overcast
3:55 AM 39.2 °F 31.2 °F 37.4 °F 93% 29.98 in 1.2 mi North 13.8 mph - N/A   Overcast
4:00 AM 39.2 °F 30.5 °F 35.6 °F 87% 29.99 in 1.2 mi North 16.1 mph - N/A   Overcast
5:00 AM 39.2 °F 31.2 °F 37.4 °F 93% 30.00 in 1.0 mi North 13.8 mph 20.7 mph N/A   Overcast
5:58 AM 39.2 °F 30.5 °F 37.4 °F 93% 30.02 in 1.8 mi North 16.1 mph - N/A   Overcast
6:00 AM 39 °F - 37 °F 88% 30.03 in 2 mi North 15.0 mph - -   Overcast
6:00 AM 39.2 °F 31.2 °F 37.4 °F 93% 30.03 in 1.8 mi North 13.8 mph 19.6 mph N/A   Overcast
6:09 AM 39.2 °F 31.2 °F 37.4 °F 93% 30.03 in 2.2 mi North 13.8 mph - N/A   Overcast
6:19 AM 39.2 °F 31.2 °F 37.4 °F 93% 30.03 in 2.5 mi North 13.8 mph - N/A   Overcast
6:25 AM 39.2 °F 32.0 °F 35.6 °F 87% 30.03 in 2.5 mi North 11.5 mph - N/A   Mostly Cloudy
6:28 AM 39.2 °F 31.6 °F 35.6 °F 87% 30.03 in 6.0 mi North 12.7 mph - N/A   Overcast
6:29 AM 39.2 °F 31.6 °F 35.6 °F 87% 30.03 in 6.0 mi North 12.7 mph - N/A   Overcast
6:41 AM 39.2 °F 32.0 °F 37.4 °F 93% 30.04 in 7.0 mi North 11.5 mph - N/A   Mostly Cloudy
7:00 AM 39.2 °F 32.5 °F 35.6 °F 87% 30.06 in 7.0 mi North 10.4 mph - N/A   Overcast
8:00 AM 39.2 °F 32.0 °F 35.6 °F 87% 30.08 in 9.0 mi North 11.5 mph - N/A   Overcast
9:00 AM 39 °F - 35 °F 81% 30.11 in 9 mi North 11.5 mph - -   Overcast
9:00 AM 39.2 °F 32.5 °F 35.6 °F 87% 30.11 in 9.0 mi North 10.4 mph - N/A   Overcast
10:00 AM 41.0 °F 35.2 °F 35.6 °F 81% 30.12 in 9.0 mi NNE 9.2 mph - N/A   Overcast
11:00 AM 41.0 °F 34.7 °F 35.6 °F 81% 30.14 in 9.0 mi North 10.4 mph - N/A   Overcast
12:00 PM 41 °F - 35 °F 71% 30.14 in 9 mi North 9.2 mph - -   Overcast
12:00 PM 41.0 °F 35.8 °F 35.6 °F 81% 30.14 in 9.0 mi North 8.1 mph - N/A   Overcast
12:39 PM 41.0 °F 35.8 °F 35.6 °F 81% 30.14 in 9.0 mi NNE 8.1 mph - N/A   Overcast
12:56 PM 39.2 °F 33.6 °F 33.8 °F 81% 30.14 in 9.0 mi North 8.1 mph - N/A   Overcast
12:57 PM 39.2 °F 34.2 °F 33.8 °F 81% 30.14 in 9.0 mi North 6.9 mph - N/A   Overcast
1:00 PM 41.0 °F 36.4 °F 35.6 °F 81% 30.14 in 9.0 mi North 6.9 mph - N/A   Overcast
1:06 PM 41.0 °F 35.8 °F 35.6 °F 81% 30.14 in 9.0 mi NNE 8.1 mph - N/A   Overcast
2:00 PM 41.0 °F 35.2 °F 35.6 °F 81% 30.14 in 9.0 mi North 9.2 mph - N/A   Overcast
2:06 PM 41.0 °F 35.8 °F 33.8 °F 76% 30.13 in 9.0 mi NNE 8.1 mph - N/A   Overcast
2:50 PM 39.2 °F 35.9 °F 33.8 °F 81% 30.15 in 9.0 mi NNW 4.6 mph - N/A   Overcast
2:52 PM 39.2 °F 35.0 °F 33.8 °F 81% 30.15 in 9.0 mi North 5.8 mph - N/A   Overcast
3:00 PM 38 °F - 34 °F 78% 30.15 in 9 mi North 5.8 mph - -   Overcast
3:00 PM 39.2 °F 35.9 °F 33.8 °F 81% 30.15 in 9.0 mi North 4.6 mph - N/A   Overcast
3:33 PM 39.2 °F 35.9 °F 33.8 °F 81% 30.14 in 9.0 mi NNE 4.6 mph - N/A   Mostly Cloudy
4:00 PM 41.0 °F 37.1 °F 35.6 °F 81% 30.14 in 9.0 mi North 5.8 mph - N/A   Overcast
4:55 PM 39.2 °F 33.6 °F 33.8 °F 81% 30.12 in 9.0 mi NE 8.1 mph - N/A   Overcast
5:00 PM 41.0 °F 35.8 °F 33.8 °F 76% 30.13 in 9.0 mi ENE 8.1 mph - N/A   Mostly Cloudy
6:00 PM 38 °F - 33 °F 74% 30.13 in 9 mi ENE 8.1 mph - - Rain Light Rain
6:00 PM 39.2 °F 33.0 °F 32.0 °F 75% 30.13 in 9.0 mi ENE 9.2 mph - N/A   Overcast
6:06 PM 39.2 °F 33.0 °F 32.0 °F 75% 30.12 in 9.0 mi ENE 9.2 mph - N/A Rain Light Rain
6:29 PM 37.4 °F 32.1 °F 33.8 °F 87% 30.12 in 9.0 mi ENE 6.9 mph - N/A   Overcast
6:32 PM 37.4 °F 32.8 °F 33.8 °F 87% 30.13 in 9.0 mi East 5.8 mph - N/A   Overcast
6:42 PM 37.4 °F 32.1 °F 33.8 °F 87% 30.12 in 9.0 mi ENE 6.9 mph - N/A   Overcast
7:00 PM 39.2 °F 34.2 °F 33.8 °F 81% 30.13 in 9.0 mi ENE 6.9 mph - N/A   Overcast
7:20 PM 39.2 °F 33.6 °F 33.8 °F 81% 30.11 in 9.0 mi East 8.1 mph - N/A Rain Light Rain
7:47 PM 39.2 °F 33.6 °F 33.8 °F 81% 30.13 in 9.0 mi East 8.1 mph - N/A   Overcast
7:48 PM 39.2 °F 34.2 °F 33.8 °F 81% 30.13 in 9.0 mi East 6.9 mph - N/A Rain Light Rain
7:52 PM 39.2 °F 33.6 °F 33.8 °F 81% 30.13 in 9.0 mi ESE 8.1 mph - N/A   Overcast
7:57 PM 39.2 °F 34.2 °F 33.8 °F 81% 30.13 in 9.0 mi ESE 6.9 mph - N/A Rain Light Rain
8:00 PM 39.2 °F 34.2 °F 33.8 °F 81% 30.13 in 9.0 mi East 6.9 mph - N/A Rain Light Rain
8:14 PM 39.2 °F 34.2 °F 33.8 °F 81% 30.13 in 9.0 mi East 6.9 mph - N/A   Overcast
9:00 PM 38 °F - 34 °F 80% 30.14 in 9 mi East 6.9 mph - - Rain Light Rain
9:00 PM 39.2 °F 34.2 °F 33.8 °F 81% 30.14 in 9.0 mi East 6.9 mph - N/A   Overcast
9:16 PM 39.2 °F 37.0 °F 33.8 °F 81% 30.15 in 9.0 mi ESE 3.5 mph - N/A Rain Light Rain
9:26 PM 39.2 °F 35.9 °F 33.8 °F 81% 30.15 in 9.0 mi ESE 4.6 mph - N/A   Overcast
10:00 PM 39.2 °F 33.6 °F 33.8 °F 81% 30.14 in 9.0 mi East 8.1 mph - N/A   Overcast
11:00 PM 39.2 °F 33.6 °F 35.6 °F 87% 30.14 in 9.0 mi East 8.1 mph - N/A   Overcast